Location: Taupo
(38.6830°S, 176.0830°E)
Time: 08:13:48
(UTC+13:00)

Cosmos 1666 Rocket - Pass Details

Date: 24 January 2019
Orbit: 605 x 632 km, 82.5° (Epoch: 15 October)

Event Time Altitude Azimuth Distance (km) Brightness Sun altitude
Rises 21:00:57 0° 183° (S) 2,962 7.5 -4.9°
Reaches altitude 10° 21:03:16 10° 178° (S) 2,043 6.6 -5.3°
Maximum altitude 21:07:43 55° 100° (E) 765 3.8 -6.1°
Drops below altitude 10° 21:12:05 10° 21° (NNE) 2,001 5.7 -6.8°
Enters shadow 21:14:07 - 17° (NNE) 2,813 6.5 -7.1°
